Weather History for KAQP - November, 2014

Change the Weather History Date:

Sunday, November 9, 2014

  Actual Average Record
Temperature  
Mean Temperature 34 °F -  
Max Temperature 39 °F 40 °F 68 °F (1999)
Min Temperature 28 °F 23 °F 17 °F (2007)
Degree Days  
Heating Degree Days 30    
Moisture  
Dew Point 23 °F    
Average Humidity 66    
Maximum Humidity 87    
Minimum Humidity 41    
Precipitation  
Precipitation 0.00 in - - ()
Sea Level Pressure  
Sea Level Pressure 29.79 in    
Wind  
Wind Speed 7 mph (North)    
Max Wind Speed 16 mph    
Max Gust Speed 17 mph    
Visibility 10 miles    
Events Snow    
Averages and records for this station are not official NWS values.
T = Trace of Precipitation, MM = Missing Value Source: NWS Daily Summary

Daily Weather History Graph

Daily Weather History Graph

Search for Another Location

Airport or City:

Trip Planner

Search our weather history database for the weather conditions in past years. The results will help you decide how hot, cold, wet, or windy it might be!

Date:

Astronomy

Nov. 09, 2014 Rise Set
Actual Time 7:14 AM CST 5:01 PM CST
Civil Twilight 6:42 AM CST 5:32 PM CST
Nautical Twilight 6:07 AM CST 6:07 PM CST
Astronomical Twilight 5:32 AM CST 6:42 PM CST
Moon 7:32 PM CST (11/9) 9:49 AM CST (11/9)
Length of Visible Light 10h 49m
Length of Day
9h 46m
Waning Gibbous, 91% of the Moon is Illuminated
Nov 9
Waning Gibbous
Nov 14
Last Quarter
Nov 22
New
Nov 29
First Quarter
Dec 6
Full

Hourly Weather History & Observations

Time (CST) Temp. Windchill Dew Point Humidity Pressure Visibility Wind Dir Wind Speed Gust Speed Precip Events Conditions
12:14 AM 39.2 °F 37.0 °F 30.2 °F 70% 29.77 in 10.0 mi WSW 3.5 mph - N/A   Scattered Clouds
12:34 AM 39.2 °F 35.9 °F 30.2 °F 70% 29.78 in 10.0 mi NNE 4.6 mph - N/A   Mostly Cloudy
12:54 AM 39.2 °F - 30.2 °F 70% 29.76 in 10.0 mi Calm Calm - N/A   Overcast
1:14 AM 39.2 °F - 30.2 °F 70% 29.75 in 10.0 mi Calm Calm - N/A   Scattered Clouds
1:34 AM 37.4 °F - 30.2 °F 75% 29.75 in 10.0 mi Calm Calm - N/A   Clear
1:54 AM 35.6 °F - 30.2 °F 81% 29.75 in 10.0 mi Calm Calm - N/A   Clear
2:14 AM 33.8 °F - 28.4 °F 81% 29.75 in 10.0 mi Calm Calm - N/A   Clear
2:34 AM 33.8 °F - 28.4 °F 81% 29.76 in 10.0 mi Calm Calm - N/A   Clear
2:54 AM 32.0 °F 26.4 °F 28.4 °F 87% 29.76 in 10.0 mi West 5.8 mph - N/A   Clear
3:14 AM 32.0 °F - 28.4 °F 87% 29.74 in 10.0 mi Calm Calm - N/A   Clear
3:34 AM 33.8 °F 27.0 °F 28.4 °F 81% 29.75 in 10.0 mi NNW 8.1 mph - N/A   Clear
3:54 AM 35.6 °F 30.7 °F 30.2 °F 81% 29.76 in 10.0 mi NNW 5.8 mph - N/A   Scattered Clouds
4:15 AM 35.6 °F 31.7 °F 30.2 °F 81% 29.75 in 10.0 mi NNW 4.6 mph - N/A   Mostly Cloudy
4:34 AM 35.6 °F 30.7 °F 30.2 °F 81% 29.76 in 10.0 mi NNW 5.8 mph - N/A   Mostly Cloudy
4:55 AM 37.4 °F 30.8 °F 32.0 °F 81% 29.76 in 10.0 mi NNW 9.2 mph - N/A   Mostly Cloudy
5:14 AM 37.4 °F 29.3 °F 32.0 °F 81% 29.75 in 10.0 mi North 12.7 mph - N/A   Scattered Clouds
5:35 AM 35.6 °F 27.1 °F 32.0 °F 87% 29.76 in 10.0 mi North 12.7 mph - N/A   Scattered Clouds
5:54 AM 35.6 °F 28.0 °F 32.0 °F 87% 29.75 in 10.0 mi North 10.4 mph - N/A   Scattered Clouds
6:15 AM 35.6 °F 27.1 °F 30.2 °F 81% 29.76 in 10.0 mi North 12.7 mph - N/A   Scattered Clouds
6:34 AM 35.6 °F 28.0 °F 30.2 °F 81% 29.77 in 10.0 mi NNW 10.4 mph - N/A   Mostly Cloudy
6:54 AM 35.6 °F 26.2 °F 30.2 °F 81% 29.78 in 10.0 mi NNW 15.0 mph - N/A   Overcast
7:14 AM 35.6 °F 27.5 °F 30.2 °F 81% 29.78 in 10.0 mi NNW 11.5 mph - N/A   Overcast
7:34 AM 33.8 °F 23.9 °F 30.2 °F 87% 29.79 in 10.0 mi NNW 15.0 mph - N/A   Mostly Cloudy
7:54 AM 33.8 °F 24.3 °F 28.4 °F 81% 29.80 in 10.0 mi North 13.8 mph - N/A   Mostly Cloudy
8:14 AM 33.8 °F 26.4 °F 26.6 °F 75% 29.81 in 10.0 mi North 9.2 mph - N/A   Scattered Clouds
8:35 AM 33.8 °F 25.8 °F 26.6 °F 75% 29.81 in 10.0 mi North 10.4 mph - N/A   Mostly Cloudy
8:54 AM 33.8 °F 25.8 °F 24.8 °F 70% 29.81 in 10.0 mi North 10.4 mph - N/A   Mostly Cloudy
9:14 AM 35.6 °F 28.0 °F 23.0 °F 60% 29.82 in 10.0 mi North 10.4 mph - N/A   Scattered Clouds
9:34 AM 35.6 °F 27.1 °F 24.8 °F 65% 29.82 in 10.0 mi North 12.7 mph - N/A   Clear
9:54 AM 35.6 °F 27.1 °F 24.8 °F 65% 29.82 in 10.0 mi North 12.7 mph - N/A   Scattered Clouds
10:14 AM 35.6 °F 26.6 °F 24.8 °F 65% 29.83 in 10.0 mi North 13.8 mph - N/A   Mostly Cloudy
10:34 AM 35.6 °F 27.1 °F 24.8 °F 65% 29.83 in 10.0 mi North 12.7 mph - N/A   Scattered Clouds
10:55 AM 35.6 °F 27.5 °F 24.8 °F 65% 29.83 in 10.0 mi North 11.5 mph - N/A   Clear
11:15 AM 35.6 °F 25.9 °F 17.6 °F 48% 29.83 in 10.0 mi North 16.1 mph - N/A   Scattered Clouds
11:34 AM 35.6 °F 25.9 °F 17.6 °F 48% 29.83 in 10.0 mi North 16.1 mph - N/A   Scattered Clouds
11:55 AM 35.6 °F 25.9 °F 17.6 °F 48% 29.82 in 10.0 mi North 16.1 mph - N/A   Scattered Clouds
12:14 PM 33.8 °F 24.3 °F 15.8 °F 48% 29.82 in 10.0 mi North 13.8 mph - N/A   Clear
12:34 PM 33.8 °F 24.3 °F 15.8 °F 48% 29.82 in 10.0 mi North 13.8 mph 17.3 mph N/A   Clear
12:54 PM 35.6 °F 28.0 °F 17.6 °F 48% 29.82 in 10.0 mi North 10.4 mph - N/A   Scattered Clouds
1:15 PM 35.6 °F 28.6 °F 17.6 °F 48% 29.82 in 10.0 mi North 9.2 mph - N/A   Scattered Clouds
1:34 PM 37.4 °F 30.8 °F 19.4 °F 48% 29.82 in 10.0 mi NNW 9.2 mph - N/A   Clear
1:54 PM 35.6 °F 27.5 °F 17.6 °F 48% 29.82 in 10.0 mi North 11.5 mph - N/A   Scattered Clouds
2:14 PM 33.8 °F 26.4 °F 17.6 °F 52% 29.81 in 10.0 mi North 9.2 mph - N/A   Scattered Clouds
2:35 PM 33.8 °F 28.6 °F 17.6 °F 52% 29.80 in 10.0 mi North 5.8 mph - N/A   Mostly Cloudy
2:54 PM 33.8 °F 25.3 °F 17.6 °F 52% 29.81 in 10.0 mi NNW 11.5 mph - N/A   Mostly Cloudy
3:14 PM 33.8 °F 27.0 °F 17.6 °F 52% 29.81 in 10.0 mi NNW 8.1 mph - N/A   Mostly Cloudy
3:34 PM 33.8 °F 27.7 °F 17.6 °F 52% 29.81 in 10.0 mi NNW 6.9 mph - N/A   Mostly Cloudy
3:55 PM 33.8 °F 28.6 °F 14.0 °F 44% 29.81 in 10.0 mi NNW 5.8 mph - N/A   Scattered Clouds
4:14 PM 33.8 °F 27.0 °F 12.2 °F 41% 29.81 in 10.0 mi NNW 8.1 mph - N/A   Scattered Clouds
4:34 PM 33.8 °F 27.7 °F 14.0 °F 44% 29.81 in 10.0 mi NNW 6.9 mph - N/A   Clear
4:54 PM 32.0 °F 26.4 °F 15.8 °F 51% 29.81 in 10.0 mi NNW 5.8 mph - N/A   Clear
5:14 PM 32.0 °F 26.4 °F 15.8 °F 51% 29.80 in 10.0 mi North 5.8 mph - N/A   Clear
5:35 PM 32.0 °F 27.5 °F 15.8 °F 51% 29.80 in 10.0 mi North 4.6 mph - N/A   Scattered Clouds
5:54 PM 32.0 °F 28.7 °F 17.6 °F 55% 29.80 in 10.0 mi North 3.5 mph - N/A   Scattered Clouds
6:15 PM 30.2 °F 24.3 °F 17.6 °F 60% 29.79 in 10.0 mi North 5.8 mph - N/A   Scattered Clouds
6:34 PM 30.2 °F 24.3 °F 17.6 °F 60% 29.78 in 10.0 mi NNE 5.8 mph - N/A   Mostly Cloudy
6:54 PM 30.2 °F 25.4 °F 19.4 °F 64% 29.79 in 10.0 mi North 4.6 mph - N/A   Mostly Cloudy
7:14 PM 30.2 °F 23.4 °F 19.4 °F 64% 29.80 in 10.0 mi North 6.9 mph - N/A   Overcast
7:34 PM 30.2 °F 24.3 °F 19.4 °F 64% 29.80 in 10.0 mi North 5.8 mph - N/A   Overcast
7:54 PM 30.2 °F 24.3 °F 19.4 °F 64% 29.79 in 10.0 mi NE 5.8 mph - N/A   Scattered Clouds
8:14 PM 30.2 °F 23.4 °F 19.4 °F 64% 29.78 in 10.0 mi NE 6.9 mph - N/A   Scattered Clouds
8:34 PM 30.2 °F 23.4 °F 19.4 °F 64% 29.78 in 10.0 mi NNE 6.9 mph - N/A   Overcast
8:55 PM 30.2 °F 22.6 °F 19.4 °F 64% 29.79 in 10.0 mi NE 8.1 mph - N/A   Overcast
9:15 PM 30.2 °F 22.6 °F 19.4 °F 64% 29.79 in 10.0 mi NE 8.1 mph - N/A   Overcast
9:34 PM 30.2 °F 24.3 °F 19.4 °F 64% 29.78 in 10.0 mi NE 5.8 mph - N/A   Mostly Cloudy
9:54 PM 30.2 °F 23.4 °F 21.2 °F 69% 29.78 in 10.0 mi ENE 6.9 mph - N/A   Scattered Clouds
10:14 PM 30.2 °F 22.6 °F 19.4 °F 64% 29.77 in 10.0 mi ENE 8.1 mph - N/A   Scattered Clouds
10:34 PM 30.2 °F 23.4 °F 21.2 °F 69% 29.77 in 10.0 mi East 6.9 mph - N/A   Mostly Cloudy
10:54 PM 30.2 °F 24.3 °F 21.2 °F 69% 29.78 in 10.0 mi ENE 5.8 mph - N/A   Mostly Cloudy
11:14 PM 30.2 °F 24.3 °F 19.4 °F 64% 29.79 in 10.0 mi ENE 5.8 mph - N/A   Scattered Clouds
11:34 PM 30.2 °F 20.8 °F 21.2 °F 69% 29.79 in 2.5 mi East 11.5 mph 16.1 mph N/A Snow Light Snow
11:54 PM 28.4 °F 19.1 °F 23.0 °F 80% 29.78 in 1.8 mi East 10.4 mph - N/A Snow Light Snow